AirNav   Jet Aviation Boston
 
 1004 users online  

40CN Loma Linda University Medical Center-Murrieta Heliport
Murrieta, California, USA

GOING TO MURRIETA?


FAA INFORMATION EFFECTIVE 29 MARCH 2018

Location

FAA Identifier: 40CN
Lat/Long: 33-36-52.9000N / 117-10-11.8300W
33-36.881667N / 117-10.197167W
33.6146944 / -117.1699528
(estimated)
Elevation: 1576 ft. / 480 m (estimated)
From city: 6 miles SW of MURRIETA, CA
Time zone: UTC -7 (UTC -8 during Standard Time)
Zip code: 92563

Heliport Operations

Heliport use: Private use. Permission required prior to landing
Activation date: 10/2011
Control tower: no
ARTCC: LOS ANGELES CENTER
FSS: RIVERSIDE FLIGHT SERVICE STATION
Attendance: UNATNDD
Wind indicator: lighted
Segmented circle: no
Lights: PCL ON 122.075
Beacon: white-green-yellow (heliport)
PCL ON 122.075

Heliport Communications

WX AWOS-3 at F70 (3 nm SE): 119.025 (951-696-1018)
WX AWOS-3 at HMT (10 nm NE): 118.375 (951-925-6886)
WX AWOS-3P at L18 (16 nm S): 118.425 (760-723-6073)

Nearby radio navigation aids

VOR radial/distance  VOR name  Freq  Var
HDFr161/(9.7)HOMELAND VOR113.4014E
RALr132/(24.7)RIVERSIDE VOR112.4014E
PDZr120/25.6PARADISE VORTAC112.2015E
OCNr014/25.6OCEANSIDE VORTAC115.3015E
ELBr083/28.3EL TORO VOR/DME117.2014E
PSPr234/40.0PALM SPRINGS VORTAC115.5013E

Heliport Services

Runway Information

Helipad H1

Dimensions: 45 x 45 ft. / 14 x 14 m
Surface: concrete
Runway edge lights: PERI
Latitude: 33-36.881667N
Longitude: 117-10.197167W
Elevation: 1576.0 ft.
Traffic pattern: leftleft

Heliport Ownership and Management from official FAA records

Ownership: Privately-owned
Owner: LOMA LINDA UNIV. MED CTR-MURRIETA
28062 BAXTER ROAD, STE. 140
MURRIETA, CA 92563
Phone 951-290-4000
Manager: ROB BOOTHBY
28062 BAXTER ROAD
MURRIETA, CA 92563
Phone (951) 290-4124

Instrument Procedures

There are no published instrument procedures at 40CN.

Some nearby airports with instrument procedures:

F70 - French Valley Airport (3 nm SE)
KHMT - Hemet-Ryan Airport (10 nm NE)
L18 - Fallbrook Community Airpark (16 nm S)
KRIV - March Air Reserve Base (17 nm N)
KNFG - Camp Pendleton MCAS (Munn Field) Airport (21 nm SW)
 
Loc | Ops | Rwys | IFR | FBO | Links
Com | Nav | Svcs | Stats | Notes

San Bernardino International Airport Authority
 
Aerial photo
No photo
 
Airport distance calculator
Flying to Loma Linda University Medical Center-Murrieta Heliport? Find the distance to fly.

From to 40CN

Sunrise and sunset
Times for 20-Apr-2018
 Local
(UTC-7)
 Zulu
(UTC)
Morning civil twilight05:4712:47
Sunrise06:1313:13
Sunset19:2202:22
Evening civil twilight19:4802:48

Current date and time
Zulu (UTC)  20-Apr-2018 12:45:11
Local (UTC-7)  20-Apr-2018 05:45:11
 
METAR
KF70 
3nm SE 
201235Z AUTO 11004KT 10SM CLR 05/03 A3012 RMK AO1
KRIV 
16nm N 
201158Z AUTO 00000KT 10SM CLR 03/03 A3010 RMK AO2 SLP195 T00290029 10087 20026 52011
KL18 
16nm S 
201235Z AUTO 06003KT 10SM CLR 07/05 A3012 RMK AO2
TAF
KRIV 
16nm N 
201203Z 2012/2118 VRB04KT 9999 SCT012 QNH3006INS BECMG 2015/2016 31005KT 9999 SKC QNH3001INS BECMG 2018/2019 31009KT 9999 SKC QNH2997INS TEMPO 2021/2102 31012G18KT BECMG 2103/2104 VRB04KT 9999 SKC QNH3003INS TX25/2022Z TN02/2013Z
NOTAMs
Click for the latest NOTAMs
NOTAMs are issued by the DoD/FAA and will open in a separate window not controlled by AirNav.

 

 
 

Would you like to see your business listed on this page?

 If your business provides an interesting product or service to pilots, flight crews, aircraft, or users of the Loma Linda University Medical Center-Murrieta Heliport, you should consider listing it here.  To start the listing process, click on the button below
 
Add a business
 

Other Pages about Loma Linda University Medical Center-Murrieta Heliport

Update a link
 
Copyright © AirNav, LLC. All rights reserved. Privacy Policy  Contact